Snowfall_Accumulation
0.0 0.0 0.0 0.0 0.0 0.0 0.0 0.0 0.0 0.0 0.0 0.0 0.0 0.0 0.0 0.0 0.0 0.0 0.0 0.0 0.0 6.1 0.6 0.0 0.0 0.9 0.5 0.0 0.3 0.0 0.6 0.1 0.2 4.1 2.7 1.3 0.7 0.1 0.5 0.0 0.5 1.0 1.9 1.8 2.5 4.7 1.4 0.0 0.0 0.1 0.0 0.0 0.0 0.0
0.0 0.0 0.0 0.0 0.0 0.0 0.0 0.0 0.0 0.0 0.0 0.0 0.0 0.0 0.0 0.0 0.0 0.0 0.0 0.0 0.0 2.4 5.7 0.9 0.3 0.0 0.6 0.0 0.0 0.0 0.0 0.8 2.3 4.3 4.4 3.5 3.3 2.9 1.1 1.1 0.0 0.5 0.0 0.4 0.7 0.1 0.0 0.0 0.0 0.0 0.0 0.0 0.0 0.0
0.0 0.0 0.0 0.0 0.0 0.0 0.0 0.0 0.0 0.0 0.0 0.0 0.0 0.0 0.0 0.0 0.0 0.0 0.0 0.0 0.0 9.7 7.0 4.6 2.8 0.9 0.0 0.0 0.0 0.2 0.0 0.0 0.0 3.0 3.5 2.1 5.3 1.6 1.2 1.2 0.4 0.2 0.3 0.1 0.0 0.0 0.0 0.0 0.0 0.0 0.0 0.0 0.0 0.0
0.0 0.0 0.0 0.0 0.0 0.0 0.0 0.0 0.0 0.0 0.0 0.0 0.0 0.0 0.0 0.0 0.0 0.0 0.0 0.0 2.1 9.8 11.4 3.0 0.0 1.4 0.5 0.0 0.0 0.0 0.0 0.0 0.0 2.2 9.5 12.5 7.0 2.0 1.6 0.3 0.4 0.2 0.1 0.2 0.2 0.0 0.0 0.0 0.0 0.1 0.0 0.0 0.0 0.0
0.0 0.0 0.0 0.0 0.0 0.0 0.0 0.0 0.0 0.0 0.0 0.0 0.0 0.0 0.0 0.0 0.0 0.0 0.0 0.0 0.0 9.3 8.1 3.1 1.8 2.2 1.4 0.0 0.0 0.0 0.0 1.5 4.7 10.9 14.1 10.7 4.6 3.6 1.4 2.1 1.6 0.1 0.2 0.4 0.2 0.0 0.2 0.3 0.1 0.0 0.1 0.0 0.0 0.0
0.0 0.0 0.0 0.0 0.0 0.0 0.0 0.0 0.0 0.0 0.0 0.0 0.0 0.0 0.0 0.0 0.0 1.8 4.8 2.8 2.2 2.3 10.5 11.6 2.5 2.4 3.1 3.4 2.6 3.4 3.7 3.7 3.8 5.9 7.8 3.7 0.9 2.7 5.7 2.9 0.0 0.1 0.2 0.0 0.1 0.0 0.1 0.3 0.2 0.0 0.0 0.0 0.0 0.0
0.0 0.0 0.0 0.0 0.0 0.0 0.0 0.0 0.0 0.0 0.0 0.0 0.0 0.0 0.0 0.0 0.0 4.8 4.8 4.3 1.8 1.9 6.2 20.2 7.6 2.3 2.5 2.0 2.2 2.7 2.5 2.5 2.6 3.1 6.2 2.9 1.6 4.6 7.8 2.9 0.1 0.4 0.3 0.2 0.1 0.1 0.1 0.1 0.1 0.0 0.0 0.0 0.0 0.0
0.0 0.0 0.0 0.0 0.0 0.0 0.0 0.0 0.0 0.0 0.0 0.0 0.0 0.0 0.0 0.0 0.0 3.9 2.5 0.0 1.7 4.0 5.6 18.2 9.0 3.8 0.8 1.6 1.7 1.5 2.0 3.4 5.0 5.0 4.9 2.6 2.2 4.3 8.9 0.4 0.3 0.1 0.1 0.1 0.2 0.4 0.1 0.4 0.1 0.0 0.0 0.0 0.0 0.0
0.0 0.0 0.0 0.0 0.0 0.0 0.0 0.0 0.0 0.0 0.0 0.0 0.0 0.0 0.0 3.5 4.8 3.7 0.0 0.0 1.3 2.3 18.5 10.3 6.0 7.2 0.6 0.4 0.7 1.0 1.7 9.1 3.4 7.0 3.9 2.8 3.2 7.0 0.3 0.0 0.1 0.1 0.3 0.5 0.2 0.0 0.0 0.0 0.0 0.0 0.0 0.0 0.0 0.0
0.0 0.0 0.0 0.0 0.0 0.0 0.0 0.0 0.0 0.0 0.0 0.0 0.0 13.3 28.6 7.2 0.0 0.0 2.0 5.0 17.2 16.4 11.9 11.0 1.7 4.2 0.4 0.0 4.1 1.1 2.7 5.6 10.6 1.7 0.3 4.3 2.0 0.1 0.1 0.2 0.4 0.0 0.1 0.3 0.1 0.1 0.0 0.0 0.0 0.0 0.0 0.0 0.0 0.0
0.0 0.0 0.0 0.0 0.0 0.0 0.0 0.0 0.0 0.0 0.0 0.0 16.3 19.9 7.5 1.4 4.7 3.8 27.7 26.3 15.9 13.9 6.2 2.4 0.8 1.9 0.1 4.6 5.5 5.1 10.0 6.2 12.7 4.2 4.0 6.1 4.1 2.4 0.5 0.8 0.3 0.0 0.1 0.2 0.3 0.0 0.0 0.0 0.0 0.0 0.0 0.0 0.0 0.0
0.0 0.0 0.0 0.0 0.0 0.0 0.0 0.0 0.0 0.0 18.3 2.4 0.6 3.1 4.7 20.1 27.2 28.0 23.7 13.1 8.0 1.6 0.9 1.5 2.2 1.9 1.6 1.8 8.0 7.8 13.1 13.9 9.7 2.9 7.7 5.8 4.9 2.7 1.6 0.2 0.2 0.0 0.0 0.0 0.4 0.3 0.2 0.0 0.0 0.0 0.0 0.0 0.0 0.0
0.0 0.0 0.0 0.0 0.0 0.0 0.0 0.0 0.0 0.0 0.0 4.8 34.1 49.0 43.3 36.7 29.6 18.6 10.6 4.4 1.4 0.5 0.6 2.7 3.1 1.4 2.4 5.2 9.6 11.9 11.2 7.8 3.6 7.4 2.9 2.3 1.0 1.1 2.2 1.4 0.4 0.0 1.2 2.2 1.1 0.6 0.1 0.0 0.0 0.0 0.1 2.1 1.2 2.4
0.0 0.0 0.0 0.0 0.0 0.0 0.0 0.0 0.0 0.0 11.6 41.3 56.5 52.1 27.4 20.6 6.9 3.4 1.0 0.5 0.8 0.7 0.8 1.0 2.0 4.0 2.2 7.9 9.4 11.4 5.8 6.7 5.9 3.1 0.3 0.3 0.5 0.4 0.4 1.2 1.2 1.2 0.1 0.4 0.8 1.2 0.4 0.8 1.1 0.8 1.3 0.6 0.6 0.4
0.0 0.0 0.0 0.0 0.0 0.0 0.0 0.0 0.0 0.0 23.0 61.9 43.4 28.2 14.4 4.4 2.1 1.5 1.3 1.1 0.2 0.2 0.5 0.3 0.5 3.0 4.9 10.0 7.3 4.4 7.6 2.6 1.1 0.5 0.0 0.0 0.1 0.1 0.1 1.1 3.6 3.2 1.8 0.8 0.5 0.3 0.9 1.1 0.8 0.3 0.0 0.0 0.0 0.0
0.0 0.0 0.0 0.0 0.0 0.0 0.0 0.0 1.1 7.3 65.2 58.4 37.3 17.2 4.7 1.4 1.6 1.0 0.8 0.3 0.3 0.1 0.3 2.7 7.5 10.8 8.3 7.5 6.9 4.3 5.2 2.7 1.1 0.4 0.0 0.1 0.1 0.3 0.5 2.1 3.1 1.4 1.3 1.5 1.1 0.0 0.0 0.0 0.0 0.0 0.0 0.0 0.0 0.0
0.0 0.2 0.0 0.0 0.0 0.0 0.0 4.7 40.0 77.4 75.8 54.7 22.0 4.8 2.0 1.9 2.0 1.4 0.6 0.1 0.0 2.4 4.1 7.4 11.6 8.2 4.2 5.7 2.5 0.2 0.6 0.6 0.0 0.3 0.1 0.0 0.0 0.0 0.6 1.2 2.4 1.5 1.9 2.3 1.8 0.5 0.0 0.0 0.0 0.0 0.0 0.0 0.0 0.1
0.5 0.0 0.0 0.0 0.0 0.0 2.6 39.2 67.6 77.9 53.4 20.9 5.3 2.4 2.3 2.0 1.9 1.2 0.5 1.0 2.1 3.2 4.9 7.7 6.1 7.2 7.4 3.8 0.9 0.6 0.3 0.0 0.0 0.0 0.0 0.0 0.0 0.0 0.0 0.8 1.9 2.1 2.1 1.7 0.9 0.0 0.3 0.2 0.1 0.2 0.4 0.8 0.3 0.3
0.7 0.0 0.0 0.0 0.0 26.9 82.4 80.4 51.4 41.5 19.6 6.9 3.6 3.6 2.6 1.2 0.6 0.6 0.1 0.8 1.6 3.2 5.8 8.9 12.6 8.4 1.4 0.4 0.3 0.0 0.0 0.0 0.1 0.0 0.0 0.0 0.0 0.0 0.0 0.0 0.0 0.0 0.6 0.7 0.7 0.5 0.3 0.1 0.3 1.3 1.2 0.7 0.8 0.7
0.0 0.0 0.0 0.0 0.0 65.1 62.4 55.2 33.5 17.3 8.9 6.7 5.5 5.4 3.7 2.1 0.6 0.7 0.4 0.2 0.6 5.3 10.5 11.0 3.7 0.6 0.0 0.1 0.2 0.1 0.0 0.0 0.0 0.0 0.0 0.0 0.0 0.0 0.0 0.0 0.0 0.0 0.0 0.0 0.0 0.0 0.1 0.8 0.2 0.0 0.2 0.5 1.2 0.9
0.0 0.0 0.0 0.0 32.6 62.2 49.3 26.8 21.1 13.3 9.3 7.7 9.7 7.4 7.4 4.2 2.9 2.1 4.0 1.5 9.4 12.5 7.4 2.6 0.5 0.0 0.2 0.1 0.0 0.0 0.1 0.0 0.0 0.0 0.0 0.0 0.0 0.0 0.0 0.0 0.0 0.0 0.1 0.1 0.4 0.7 0.3 0.1 0.3 0.2 0.4 0.6 0.1 0.5
3.4 0.0 9.8 8.6 58.1 48.4 34.2 17.4 14.0 10.9 6.6 9.9 11.3 9.9 10.2 9.4 8.9 8.3 7.5 13.0 14.3 5.9 2.0 1.3 1.0 0.7 0.3 0.3 0.2 0.6 0.0 0.3 0.0 0.0 0.0 0.0 0.0 0.0 0.0 0.0 0.0 0.6 0.8 0.8 1.0 1.2 0.6 0.4 0.9 1.5 0.9 0.6 0.6 0.7
1.4 5.7 35.9 42.5 40.9 28.0 22.8 12.7 10.8 11.2 12.3 14.0 12.3 11.7 12.6 10.9 11.6 11.5 15.6 10.8 5.4 3.2 2.3 2.0 1.5 1.3 1.1 0.7 0.4 0.1 0.1 0.0 0.0 0.2 0.1 0.0 0.0 0.0 0.0 0.1 0.7 2.3 2.2 0.6 0.0 1.7 1.7 0.9 1.0 1.7 1.4 1.0 0.8 1.0
0.0 44.8 45.6 36.3 21.5 15.7 11.1 11.0 7.3 6.1 10.4 11.3 11.1 10.1 7.7 8.8 11.5 13.5 9.1 3.7 3.4 3.4 2.6 3.1 2.4 1.3 1.4 1.3 1.5 1.1 0.7 0.4 0.3 0.2 0.7 0.5 0.4 0.4 0.1 0.5 0.7 0.8 1.3 1.3 2.1 2.1 1.9 2.2 2.3 2.9 2.4 2.8 2.4 3.7
61.7 52.7 30.5 22.3 11.4 6.2 3.7 4.7 5.6 5.3 4.9 6.2 6.7 7.4 6.6 7.6 9.8 7.0 3.6 3.0 3.8 4.3 3.5 2.8 2.5 2.5 1.6 2.5 1.5 1.7 1.3 2.1 2.5 1.5 0.7 1.4 3.3 2.9 0.6 0.6 0.3 0.5 2.1 4.6 4.0 2.6 2.2 3.7 4.3 3.3 3.1 3.8 4.0 3.1
34.1 16.8 15.6 4.5 1.5 0.2 0.6 1.3 2.3 2.8 3.1 4.4 5.0 5.1 6.1 6.8 5.1 3.9 2.5 3.0 3.7 4.7 5.0 4.3 3.0 2.0 2.8 2.0 4.2 3.1 2.1 1.8 1.7 4.6 2.9 2.6 2.9 4.8 3.4 1.8 1.2 1.6 2.0 8.0 9.6 8.1 5.5 4.3 5.3 4.1 4.5 3.7 4.5 5.9
15.1 6.1 3.1 0.3 0.4 0.5 0.4 0.7 0.9 1.3 3.3 3.1 2.5 2.5 3.9 6.3 3.1 1.7 1.6 2.2 3.3 4.1 4.3 4.3 3.8 3.7 3.4 3.9 3.4 3.4 3.3 3.0 4.3 2.6 3.2 3.3 3.1 3.3 5.3 8.3 6.3 2.1 3.9 8.4 9.8 8.9 8.3 6.4 6.1 6.1 5.9 5.0 4.7 4.7
2.4 0.1 0.4 0.1 0.1 0.4 0.7 0.8 0.9 0.9 1.2 0.8 1.8 2.4 2.7 1.8 0.6 0.8 1.4 1.9 3.3 4.2 4.9 5.2 5.0 4.5 4.7 4.5 4.5 6.7 6.3 5.5 5.2 4.3 3.6 3.6 4.1 6.6 7.6 8.9 9.1 9.7 10.0 9.6 12.1 11.1 9.8 8.9 7.8 6.9 6.6 5.8 3.6 3.9
1.0 0.0 0.0 1.0 2.0 2.5 2.4 1.6 0.8 0.4 0.2 0.3 1.0 1.0 0.4 0.4 0.7 0.8 1.2 2.2 3.4 4.5 5.3 6.0 6.5 5.8 7.5 7.1 6.3 6.3 7.1 7.3 7.6 5.3 2.4 2.7 3.2 4.9 9.3 10.1 10.3 11.0 10.4 10.1 9.0 10.8 9.8 9.8 9.7 8.9 7.0 5.7 4.4 5.5
0.6 0.7 1.2 1.9 1.6 1.0 0.9 0.3 0.2 0.1 0.7 0.8 0.7 0.5 0.1 0.3 0.9 1.1 1.3 1.6 2.8 4.4 6.0 7.1 8.2 9.4 8.0 6.8 6.8 7.3 9.0 10.1 9.2 8.2 6.6 3.4 3.3 4.7 7.5 10.0 11.0 9.7 10.7 11.2 10.4 10.1 9.7 8.8 8.4 8.3 7.9 7.0 6.4 6.6
1.6 1.6 1.4 1.3 0.9 0.7 1.0 1.6 2.3 2.1 1.8 1.3 1.0 0.9 0.6 0.1 0.5 0.8 1.1 1.7 2.2 4.1 6.5 7.1 8.2 9.9 9.5 7.5 7.5 7.0 6.5 7.2 8.2 8.5 8.4 8.9 8.1 8.6 9.9 11.2 11.4 12.2 12.0 11.7 10.2 9.8 9.0 6.8 5.5 5.4 4.8 4.7 5.1 4.7
2.0 1.4 0.9 0.6 0.6 1.8 2.3 2.1 1.9 1.6 1.4 1.0 0.8 0.5 0.9 0.8 0.6 0.3 0.7 1.8 3.1 4.9 6.5 7.2 7.4 7.4 7.0 7.4 6.6 7.0 6.1 5.9 5.9 6.6 7.3 8.4 8.0 7.5 9.2 10.0 10.2 10.2 10.5 11.2 10.0 9.3 8.5 7.2 7.4 6.9 6.7 6.7 6.3 5.8
2.5 1.9 1.3 1.6 2.1 1.9 2.1 1.3 1.6 1.7 1.3 1.0 0.6 0.4 0.4 0.8 1.1 0.5 1.2 1.7 2.5 3.5 4.0 4.4 5.3 6.7 6.7 6.1 5.9 6.2 5.7 7.5 7.3 7.6 8.6 8.4 8.0 8.3 8.8 7.6 7.4 7.8 8.3 9.3 9.7 9.0 8.9 8.4 7.7 7.0 7.0 6.8 6.7 6.5